Location: R�o Medio
(42.4667°N, 3.0167°W)
Time: 14:04:10
(UTC+00:00)

USA 238 - Pass Details

Date: 27 February 2020
Orbit: 1017 x 1195 km, 63.4° (Epoch: 05 April)

Event Time Altitude Azimuth Distance (km) Brightness Sun altitude
Rises 19:58:00 0° 325° (NW) 3,948 7.3 -22.7°
Reaches altitude 10° 20:00:43 10° 330° (NNW) 3,013 6.6 -23.2°
Maximum altitude 20:07:49 57° 48° (NE) 1,344 3.9 -24.5°
Enters shadow 20:09:26 48° 92° (E) 1,484 4.0 -24.8°
